Wind_Speed
18 16 15 14 12 9 9 11 14 17 17 17 18 18 17 15 13 13 13 13 14 16 18 18 18 17 17 16 15 15 14 14 14 14 14 15 15 14 13 12 12 12 11 10 10 10 10 10 10 10 10 10 10 10 11 11 10 10 10 10 9 7 6 5 4 3 2 2 2 2 3 3 4 4 4 4 3 4 4 4 3 2 1 1 1
18 16 14 13 11 9 10 12 15 18 18 18 19 19 18 16 15 14 15 15 16 18 19 19 18 18 17 16 15 15 14 14 14 14 15 15 15 15 14 12 12 12 11 10 10 10 10 10 10 10 9 9 10 10 11 11 11 10 10 9 8 7 6 4 4 3 3 3 3 3 3 4 4 4 4 4 4 4 4 4 4 3 2 1 1
18 17 16 14 11 9 11 13 16 18 19 19 20 20 19 17 17 16 17 17 18 19 19 20 19 18 17 17 16 15 14 14 14 14 15 15 16 15 14 13 12 12 11 10 9 9 9 9 10 9 9 9 9 10 11 11 11 10 10 9 8 7 5 4 3 3 3 3 3 3 3 3 4 4 4 4 4 4 4 4 4 3 2 1 1
19 18 17 15 12 11 12 15 17 19 20 21 21 22 21 20 19 18 18 19 20 20 20 20 20 19 18 17 16 15 14 14 14 15 15 16 16 16 15 13 12 12 11 9 9 8 9 9 9 8 8 9 10 10 11 11 11 10 10 9 8 6 5 4 3 3 3 3 4 3 3 3 3 3 4 4 4 4 4 4 4 3 2 1 1
19 18 17 16 14 13 14 16 18 20 21 22 23 24 24 22 21 19 19 20 20 21 21 21 20 19 18 17 16 14 14 14 14 15 15 16 16 16 15 13 12 11 10 9 8 7 8 8 8 8 8 9 10 11 11 11 11 10 10 9 7 6 5 4 4 3 3 4 4 3 3 3 3 3 3 3 3 4 4 4 4 4 3 2 1
19 19 18 17 16 16 16 17 19 21 22 23 25 26 26 25 22 20 20 21 21 21 22 21 20 20 18 17 15 14 13 14 14 14 15 16 16 16 15 13 12 11 10 9 8 7 7 7 7 8 9 9 10 10 11 11 11 10 9 8 7 6 5 4 4 4 3 4 4 4 3 3 3 3 2 2 3 4 4 4 5 4 4 3 1
19 19 18 17 17 17 18 18 19 21 22 24 26 27 27 26 23 21 21 21 21 21 22 22 21 20 18 17 15 14 13 14 14 14 15 16 16 16 15 13 11 10 9 8 7 6 6 6 8 9 9 9 9 10 11 11 11 10 9 8 7 6 5 4 4 4 4 4 4 4 4 3 3 2 2 2 2 3 3 4 4 4 4 3 2
19 18 18 18 18 19 19 19 19 21 23 25 26 27 28 26 23 21 21 21 21 22 22 22 21 20 18 16 15 14 14 14 15 15 15 16 16 16 15 14 12 10 9 7 6 5 5 6 8 9 9 9 8 9 10 11 11 10 9 8 7 6 5 4 4 4 4 4 4 4 4 4 3 3 2 2 2 2 3 4 4 5 4 4 3
19 19 19 19 19 19 19 19 20 21 23 25 27 28 28 25 22 21 21 21 22 23 22 22 21 20 18 16 15 14 14 14 15 16 16 16 16 16 15 14 12 10 9 7 6 5 5 6 7 9 9 8 8 8 10 10 10 10 9 8 7 6 5 4 4 4 4 4 4 4 4 4 4 3 2 2 1 2 2 3 4 5 5 5 4
20 19 19 20 20 20 20 21 22 23 25 26 27 28 27 23 21 21 21 22 22 23 23 23 21 19 17 16 15 15 15 15 16 16 17 16 16 16 15 14 13 11 9 7 6 5 4 5 7 8 9 9 7 7 9 10 10 10 9 8 7 6 5 5 4 4 4 4 4 4 4 4 4 3 2 2 1 1 2 3 4 5 5 5 5
21 20 21 21 22 22 23 24 24 25 26 26 27 27 24 21 21 21 21 22 22 23 23 22 21 18 16 15 15 15 16 17 17 17 17 17 17 16 15 15 13 11 9 7 5 5 4 5 7 9 9 9 8 7 8 10 10 10 9 9 7 6 5 5 4 4 4 4 4 4 4 4 4 3 3 2 2 2 2 3 3 4 5 5 5
23 22 23 23 23 23 24 24 25 26 28 27 27 24 21 20 20 21 21 21 22 23 23 22 19 16 15 15 16 16 17 17 18 18 18 18 17 17 16 15 13 12 10 7 6 5 5 5 7 9 10 10 8 7 8 10 10 10 9 9 8 7 6 5 4 3 4 4 4 4 4 4 4 4 4 3 2 2 3 3 3 4 5 5 5
25 24 24 24 23 23 23 24 25 27 27 27 24 21 19 19 20 20 21 21 22 22 21 19 16 15 15 15 16 17 18 18 18 18 18 18 17 17 16 15 14 12 10 8 5 4 4 5 7 9 11 11 9 8 8 9 10 10 9 9 9 8 6 5 4 3 4 4 4 4 4 4 4 4 4 3 3 3 3 4 4 4 5 5 5
26 26 26 25 23 23 23 24 24 24 23 22 20 19 18 19 20 20 20 21 21 21 19 17 15 15 16 16 17 18 18 18 19 18 18 18 18 17 16 15 14 12 11 8 6 4 3 4 7 8 10 11 10 9 9 9 9 9 9 9 9 8 7 6 5 4 4 5 5 5 4 4 5 5 4 4 4 4 4 4 4 4 4 5 5
27 28 27 26 24 24 23 24 23 20 18 18 18 17 18 19 19 19 20 20 20 19 17 16 15 16 16 16 17 18 18 18 18 18 18 18 18 18 17 15 14 12 10 8 7 5 4 6 7 7 9 11 11 10 9 9 9 9 9 9 9 8 7 6 5 5 5 6 6 5 5 5 5 5 5 5 4 4 4 5 5 5 5 5 5
28 28 27 26 25 24 24 23 21 17 16 16 16 17 18 19 19 19 19 19 19 18 17 16 16 16 16 17 17 18 18 18 18 18 18 19 19 18 17 15 13 11 10 8 7 6 5 7 6 7 8 10 11 11 10 9 9 10 9 9 9 9 8 7 6 6 6 6 6 5 5 5 6 6 6 6 6 5 5 5 5 5 5 5 5
27 27 27 26 26 25 24 22 19 16 15 15 16 17 18 19 19 19 19 18 18 17 17 16 16 16 17 17 17 18 18 17 17 18 19 19 19 19 17 15 14 12 11 10 8 8 7 6 6 7 8 10 11 12 11 10 11 12 11 9 9 9 9 8 7 7 7 7 7 7 6 6 7 7 7 7 7 6 6 5 5 6 6 6 6
25 25 25 25 26 26 23 20 17 15 15 15 16 17 18 18 19 19 18 18 17 17 17 17 17 17 17 17 18 18 17 17 17 17 19 19 19 18 17 16 15 13 12 12 10 9 8 6 6 6 8 10 12 12 13 12 12 12 12 10 9 10 10 9 9 9 9 8 8 8 8 8 8 9 8 8 7 7 6 6 6 6 6 6 6
23 22 22 24 25 24 21 18 16 14 15 15 17 18 18 18 18 18 18 18 17 17 17 17 17 17 18 18 18 17 16 16 16 17 18 19 18 18 17 16 15 14 12 11 9 8 7 7 6 7 10 11 12 13 14 13 12 12 11 11 11 10 11 11 10 10 10 10 9 9 9 10 10 10 10 9 8 8 7 7 6 6 6 7 7
20 20 20 21 22 20 19 17 15 15 15 16 17 17 18 18 18 18 17 17 17 16 16 17 17 18 19 18 17 16 15 16 17 18 18 18 17 17 17 17 16 15 12 11 9 8 7 7 8 9 11 11 12 13 13 14 13 12 12 12 12 12 12 12 11 12 12 12 11 10 11 11 12 12 11 10 9 8 8 8 7 7 6 7 7
19 18 18 19 19 18 17 16 16 16 16 17 17 17 17 18 17 17 17 17 16 16 16 17 18 18 18 17 16 15 15 17 18 18 17 17 16 16 17 17 17 15 14 12 10 9 8 11 12 9 11 13 13 14 14 14 14 13 12 12 13 13 13 13 13 13 13 14 13 12 12 13 13 13 12 11 11 10 10 9 9 8 7 7 7
18 17 17 18 18 18 17 17 16 17 17 17 17 17 17 17 17 17 16 16 15 16 17 18 18 18 17 16 15 16 17 18 18 18 17 15 15 16 16 17 17 16 15 14 12 12 12 14 14 11 12 14 13 14 14 13 14 14 13 13 13 13 14 14 14 14 14 15 15 15 14 14 15 14 13 13 12 12 11 11 10 9 8 8 7
16 16 16 18 18 18 18 17 18 18 18 18 18 17 17 16 16 15 15 15 15 15 17 17 18 18 17 16 17 18 18 19 18 17 15 15 15 15 16 16 17 16 15 15 15 15 15 15 14 14 14 14 14 15 13 13 13 14 14 14 14 14 15 15 16 15 15 15 16 16 15 15 15 14 14 14 14 14 13 12 12 11 10 9 8
15 14 16 18 18 19 18 18 19 20 20 19 18 17 16 15 14 14 14 15 15 16 16 17 18 18 17 18 18 19 19 18 17 15 14 14 14 14 15 15 16 16 15 15 15 15 15 15 15 15 14 13 13 13 12 12 13 14 15 16 16 15 16 16 17 16 16 16 17 17 17 17 16 15 15 15 15 15 14 13 13 13 12 12 10
14 13 16 19 19 19 20 20 21 21 20 18 17 16 14 13 13 13 14 15 16 16 17 18 18 18 18 18 18 19 18 17 15 13 12 13 13 14 14 15 15 14 15 15 15 14 14 14 14 13 11 10 10 10 11 12 13 15 16 17 17 17 17 18 18 17 17 17 18 18 17 17 17 16 16 16 16 16 15 14 14 14 14 14 13
12 13 16 19 20 21 21 21 21 20 18 17 16 15 13 13 13 14 14 15 15 16 16 17 18 18 18 18 18 18 17 16 14 12 11 12 12 13 13 13 13 13 14 14 13 13 13 13 12 11 9 8 8 9 10 11 13 15 16 17 17 18 18 19 19 19 18 18 19 18 17 17 18 18 18 18 18 17 16 15 15 15 15 15 15
13 15 17 19 21 21 21 21 20 18 16 16 16 14 13 13 13 13 14 15 15 15 16 17 18 18 18 18 17 17 16 14 13 11 10 11 11 12 12 12 12 12 13 12 11 12 13 12 11 10 9 8 8 8 9 10 12 14 16 17 17 18 18 19 19 19 19 20 20 19 18 18 19 19 19 19 19 18 16 16 16 16 16 16 16
15 15 17 19 21 21 21 21 19 18 16 15 14 12 12 12 12 13 14 15 15 16 17 18 18 19 18 17 17 16 15 13 11 10 9 10 10 11 12 13 13 12 11 11 11 12 11 11 10 9 9 9 8 8 8 9 11 13 15 17 17 18 18 18 19 19 20 20 21 20 19 19 19 19 19 19 19 18 17 16 16 16 17 17 18
18 18 19 19 20 21 20 19 18 17 16 14 12 11 11 11 12 12 14 15 15 16 17 18 19 18 17 16 16 16 14 12 10 9 9 9 11 11 12 12 12 11 11 11 11 11 10 10 9 9 9 9 8 8 8 8 9 11 13 16 17 18 18 18 18 19 19 21 22 21 20 20 20 19 19 19 18 18 17 17 17 17 17 18 18
22 21 21 19 19 18 15 16 16 16 15 12 11 11 11 11 12 13 14 14 15 16 17 17 17 17 16 16 16 15 12 11 10 9 9 10 10 10 10 11 11 11 11 11 10 9 9 9 9 9 9 9 8 8 8 8 8 9 11 13 15 16 16 16 17 18 19 21 21 22 22 21 20 19 18 18 18 17 17 17 17 17 18 18 19
23 21 19 18 17 16 15 16 16 15 14 13 12 12 11 13 14 14 14 14 15 16 16 16 16 15 16 16 15 13 12 11 10 10 10 10 9 9 9 10 10 11 11 10 9 8 8 8 9 9 8 8 8 9 9 8 8 8 9 10 12 13 13 14 15 16 18 19 20 22 22 22 21 19 18 17 17 17 17 17 17 17 17 18 19
23 20 19 18 17 17 17 16 14 14 14 14 15 14 13 14 15 14 14 14 15 15 16 15 15 15 16 16 15 12 11 11 11 10 10 10 10 10 10 10 10 10 9 8 7 8 8 8 8 8 8 8 8 9 9 9 8 8 8 9 10 11 11 12 14 16 17 17 19 21 22 21 21 19 18 17 17 16 16 16 16 16 17 18 19
24 21 20 19 17 17 17 15 13 14 14 15 16 15 14 14 14 13 13 13 14 15 15 15 15 15 16 15 13 11 11 11 11 10 10 10 10 10 10 10 9 8 7 7 7 8 8 8 8 8 8 8 8 8 9 9 9 8 8 8 8 9 10 11 13 16 16 16 17 19 20 20 20 19 18 17 16 16 15 15 14 15 16 18 19
27 23 22 19 17 16 15 14 13 12 12 12 13 13 13 13 13 12 12 12 14 14 14 14 14 14 15 13 12 11 11 12 12 12 11 10 9 9 9 8 7 7 7 7 7 7 8 8 8 8 8 8 8 9 9 9 9 9 8 7 7 7 8 10 12 13 14 14 15 16 17 17 17 17 17 16 16 15 14 14 14 14 16 16 17
25 22 22 19 17 16 15 13 12 10 9 9 10 11 11 11 12 12 12 12 13 14 14 14 13 13 13 12 12 13 13 13 13 12 12 11 9 9 8 7 7 7 7 7 7 7 7 7 8 8 8 9 9 9 9 9 8 8 8 7 6 6 7 8 9 8 10 11 12 13 14 14 15 15 15 15 15 15 15 14 13 15 16 16 16
20 20 20 18 17 15 13 11 9 8 8 9 9 9 9 10 11 12 12 12 12 12 13 13 13 13 12 12 13 14 14 13 13 13 12 11 10 9 8 8 7 7 7 6 6 7 7 7 8 8 9 9 9 10 10 8 8 8 7 6 6 6 6 7 6 5 7 8 10 11 11 12 13 13 13 13 14 14 14 14 13 14 15 15 16
17 17 15 13 13 11 10 9 8 8 9 10 10 10 10 10 10 11 12 13 13 14 14 14 14 13 13 13 14 14 14 13 13 13 13 12 11 10 9 8 8 7 6 6 6 7 7 7 8 8 9 9 9 10 9 8 7 7 7 7 7 7 6 5 5 6 7 7 7 8 9 9 10 11 12 12 12 13 13 14 13 13 14 14 15
12 11 9 8 8 8 9 10 9 10 10 11 12 12 12 13 12 13 13 13 14 14 14 14 14 14 14 14 14 14 14 14 13 13 13 12 11 11 9 9 8 8 7 6 7 8 8 8 9 9 9 9 9 9 9 7 7 7 7 7 6 7 6 5 6 7 6 6 5 7 7 6 6 7 8 9 11 12 12 13 12 12 13 13 13
7 6 6 6 7 9 13 14 11 9 9 10 12 13 14 15 15 15 14 14 14 14 14 15 15 15 15 16 16 16 15 14 13 13 13 13 12 11 10 10 9 8 8 7 8 8 8 9 9 9 9 8 9 9 8 7 7 7 7 7 6 6 5 3 5 6 5 5 5 6 7 6 5 5 5 7 10 11 11 11 11 11 12 12 13
7 5 6 7 8 13 17 16 11 8 8 10 11 13 14 14 14 14 13 13 13 14 15 16 17 17 16 16 17 17 16 15 14 14 14 14 13 12 11 11 10 9 9 9 9 9 8 9 8 8 8 8 8 8 8 7 6 7 7 7 5 5 4 1 3 4 4 5 6 7 8 8 7 6 6 7 8 9 10 11 11 11 11 12 13
9 8 8 9 11 15 17 14 11 9 7 8 10 11 12 12 12 12 12 12 12 14 15 16 18 18 17 17 18 18 17 16 15 15 15 15 14 13 12 12 11 10 10 10 9 9 8 8 8 8 7 7 7 7 8 7 6 6 7 6 5 4 3 1 2 3 4 6 7 7 8 9 8 8 8 8 8 9 10 11 11 11 10 11 12
11 11 10 12 15 18 17 14 13 11 7 7 9 9 8 8 10 12 13 14 14 14 16 17 18 18 18 18 18 18 18 17 16 16 16 16 15 14 13 12 11 10 10 10 9 9 8 8 8 8 7 7 7 7 7 7 6 6 6 6 5 4 2 1 2 3 5 6 7 7 7 8 8 8 9 9 9 9 9 9 10 9 9 10 11
14 13 13 15 18 20 18 16 16 13 9 9 10 10 9 10 12 14 15 15 14 15 17 19 19 18 18 19 19 19 18 18 17 17 17 16 16 15 14 13 11 11 10 10 9 9 9 9 8 8 7 6 6 6 6 6 6 6 6 6 5 4 3 3 3 4 5 6 6 6 6 6 6 7 7 7 7 7 8 8 8 8 9 10 10
15 14 14 14 17 19 19 17 17 15 13 13 13 13 14 15 16 17 17 17 15 16 19 20 19 18 19 20 21 20 19 19 18 18 17 16 16 15 14 13 12 11 10 10 10 9 9 9 9 8 7 6 6 5 5 5 6 6 6 6 5 5 4 4 4 4 5 5 5 5 6 5 6 6 6 7 7 7 8 8 9 9 10 11 11
15 15 14 13 14 17 18 17 16 18 17 16 15 16 17 17 18 19 19 18 18 19 21 20 19 19 21 22 21 20 20 19 19 18 17 17 16 15 14 13 11 11 11 11 10 10 11 10 10 9 7 6 6 6 5 5 5 5 5 6 5 5 4 5 5 5 5 5 5 6 7 7 8 8 8 8 8 9 9 10 11 12 13 13 13
16 16 15 13 13 15 17 17 17 19 20 19 17 17 18 18 19 20 20 20 20 21 21 21 21 22 22 22 21 21 20 20 20 19 18 17 17 16 14 13 12 12 12 12 11 12 12 12 11 9 7 6 6 6 6 6 6 6 6 6 6 5 4 4 5 5 4 5 6 7 8 8 9 9 9 9 9 10 11 12 13 14 14 15 15
16 17 16 14 14 15 16 16 19 21 21 21 19 19 20 20 20 21 21 21 21 21 22 22 23 23 22 22 21 21 21 21 20 19 18 18 18 16 15 14 14 13 13 12 12 12 13 13 11 10 9 8 7 7 7 6 6 7 7 7 6 5 4 4 4 4 5 6 6 7 7 8 8 8 8 9 10 11 12 12 13 14 15 15 16
16 17 16 15 15 15 15 16 19 23 22 21 20 20 21 21 22 22 22 21 21 22 22 23 24 23 22 22 22 21 21 21 20 20 19 19 18 17 16 16 15 14 13 13 13 13 13 13 12 11 10 9 8 8 8 8 8 8 7 7 7 6 6 6 6 6 6 6 6 7 7 7 7 7 8 9 10 11 11 12 13 13 14 15 16
17 17 17 16 16 16 16 16 19 24 23 20 21 21 22 23 23 24 23 21 22 23 23 24 24 23 23 22 21 21 21 21 20 20 20 20 19 18 17 16 16 15 14 14 13 13 13 13 12 11 10 10 8 8 9 10 10 10 9 8 8 8 7 7 7 7 7 7 7 7 7 7 7 7 8 8 9 10 11 12 12 13 13 14 15
18 18 17 17 18 18 16 16 19 24 24 21 21 21 22 24 25 25 23 22 23 24 25 25 24 22 21 21 20 20 21 21 21 21 21 20 20 19 18 17 16 15 15 14 14 14 14 13 13 12 12 11 10 9 9 10 11 12 11 11 10 9 9 8 8 8 8 7 7 7 7 7 7 8 8 9 9 10 11 11 11 12 12 13 14
20 20 19 19 20 22 21 20 20 24 26 22 20 21 21 24 26 26 24 24 25 26 26 26 24 22 21 21 21 21 21 22 22 22 21 20 20 19 18 17 16 16 15 15 14 14 14 14 14 14 13 12 11 10 10 10 11 12 12 12 11 11 10 10 9 9 8 8 7 7 7 7 7 8 8 9 10 10 11 11 11 11 12 12 13
Wind_Direction
266 266 265 267 273 287 304 313 320 324 322 323 323 323 328 328 319 314 313 313 317 320 322 322 319 316 314 312 313 314 315 317 320 322 324 326 326 326 325 322 316 312 311 312 314 315 315 317 320 322 325 326 327 326 325 324 324 326 328 329 335 339 343 347 348 345 336 325 309 291 280 269 259 254 242 230 229 232 233 232 230 224 206 186 69
270 268 265 266 272 286 300 306 312 316 316 317 319 319 320 323 319 313 312 310 314 319 319 317 315 312 311 311 312 313 312 314 317 320 322 324 323 323 323 320 314 310 310 310 310 312 313 316 320 323 326 329 328 327 326 325 325 326 327 329 334 338 341 344 343 337 331 323 310 300 289 273 261 257 248 233 228 230 232 233 233 234 233 240 31
267 265 266 267 270 283 294 300 306 309 310 312 316 318 317 316 316 312 308 308 312 315 315 313 311 310 311 311 310 309 309 311 315 319 320 321 321 321 322 319 313 308 308 307 306 308 310 315 322 326 329 330 330 328 327 326 324 326 328 329 333 335 337 337 334 327 323 316 304 295 287 275 263 258 250 236 227 227 230 234 237 242 245 301 19
263 264 266 266 267 278 289 296 301 303 305 307 311 315 316 313 312 310 306 307 310 311 312 310 309 311 311 308 306 305 307 310 314 318 319 319 320 321 321 320 313 307 307 303 300 304 308 316 323 326 329 330 329 328 326 325 324 326 327 328 331 330 328 327 319 315 314 309 301 292 289 282 269 261 252 239 230 229 230 231 235 239 238 254 328
257 260 261 262 267 277 285 291 296 299 301 303 306 310 314 313 310 308 304 305 306 308 309 307 308 309 306 304 303 303 306 309 312 316 318 318 320 321 322 320 313 306 303 298 294 299 306 315 320 320 323 326 328 327 326 325 324 325 326 326 327 323 318 315 310 305 306 305 303 299 300 296 286 279 264 248 237 237 236 232 233 234 230 230 250
249 255 258 262 269 276 281 285 290 294 298 301 305 307 311 313 310 305 303 302 304 305 305 305 307 305 301 301 301 303 306 307 309 314 317 318 320 321 321 319 312 304 299 293 288 292 301 310 313 311 317 323 327 325 325 325 325 325 325 324 323 319 312 308 306 305 305 305 307 306 304 299 296 296 281 261 245 239 239 235 234 239 239 241 265
245 252 258 264 268 272 275 278 283 290 295 299 303 304 307 311 308 303 300 301 302 301 302 304 305 301 298 299 301 303 304 305 309 314 316 318 319 320 320 317 310 302 296 290 281 283 293 304 305 305 313 322 325 324 325 326 325 326 326 323 320 316 310 305 304 307 310 308 311 310 306 301 300 305 286 267 249 239 237 235 232 236 239 243 260
246 252 257 262 265 267 270 275 281 287 293 297 299 301 303 307 304 299 298 298 298 299 302 304 302 299 297 298 300 301 302 305 309 313 315 317 319 319 317 313 308 300 294 285 274 273 284 297 300 302 309 319 324 322 323 326 326 326 327 325 322 317 311 304 303 310 316 313 313 311 310 309 307 312 294 272 251 239 240 237 234 232 234 235 240
247 251 254 259 262 266 271 275 280 284 288 292 295 297 299 301 299 296 296 296 296 300 303 303 301 298 296 298 299 300 304 307 310 313 314 315 317 316 313 310 305 297 291 279 266 262 275 292 296 297 304 313 320 319 319 324 326 326 328 328 325 321 314 307 304 311 317 312 311 309 309 314 312 310 299 290 273 253 252 244 239 235 235 236 237
247 249 252 257 261 265 270 273 276 279 283 286 289 292 295 295 294 293 293 294 298 302 303 302 300 297 296 297 299 303 306 308 310 311 311 312 313 313 310 305 300 293 285 274 263 260 268 284 291 294 298 306 314 316 315 317 323 326 327 329 329 325 320 313 307 309 309 305 305 303 304 313 311 304 298 288 273 260 263 257 247 242 240 241 239
245 248 252 256 259 263 268 271 275 278 280 282 285 289 291 290 290 290 291 294 298 301 301 299 297 295 295 298 301 304 305 306 308 309 308 309 310 310 306 300 294 287 280 268 260 259 267 279 286 290 293 301 308 309 310 311 317 325 327 328 331 331 327 319 310 307 301 296 297 294 298 307 304 297 293 280 268 259 258 263 255 249 248 248 246
245 248 252 256 260 264 269 273 277 278 279 280 281 285 286 285 286 288 290 293 296 298 297 295 292 292 295 298 301 302 302 304 306 306 306 306 307 306 302 296 289 281 274 262 256 257 258 270 281 286 289 295 303 302 302 306 312 322 326 327 330 333 333 323 311 302 290 282 279 282 293 299 296 290 289 280 270 262 253 256 258 256 252 253 253
250 252 255 259 263 268 273 276 278 277 277 277 277 279 280 281 283 285 288 291 294 295 293 290 288 290 292 295 297 298 300 302 304 304 303 303 304 303 299 292 285 277 269 258 252 253 251 266 276 283 286 289 295 296 294 301 309 318 323 325 328 332 334 327 314 299 283 273 266 270 285 290 288 285 285 283 275 266 254 249 250 256 254 252 253
256 259 261 264 267 271 274 275 275 274 272 271 271 272 275 277 279 282 286 290 293 291 287 283 284 286 289 291 293 296 298 300 301 301 300 300 301 301 297 290 283 275 268 257 244 242 266 289 284 282 284 287 290 291 291 295 305 314 318 320 322 325 328 325 314 296 278 269 266 268 277 281 282 282 282 281 276 266 256 249 244 247 250 249 251
260 262 264 266 267 270 272 272 272 269 265 265 266 269 271 273 276 280 285 288 288 283 279 278 280 283 286 289 292 294 297 298 298 298 298 298 300 300 296 289 282 273 266 258 242 229 271 293 286 284 283 285 286 286 290 292 297 306 312 314 315 316 317 316 308 292 277 268 267 266 271 277 280 280 281 279 273 265 256 249 244 242 243 244 246
263 264 265 265 265 267 269 270 268 262 258 259 263 266 268 270 274 279 283 283 280 276 276 278 280 283 286 288 291 294 295 296 296 296 297 297 299 297 293 288 281 271 261 256 235 219 268 286 271 280 286 285 285 284 286 288 290 295 304 308 308 308 306 304 297 287 277 270 268 265 266 272 276 277 278 276 272 267 258 249 243 240 241 242 242
264 266 266 264 263 265 267 266 261 254 251 254 259 262 264 269 274 278 280 279 277 275 277 280 283 285 287 290 292 294 294 295 295 295 296 297 297 294 292 288 283 275 261 254 237 224 255 269 251 268 281 280 280 280 282 282 285 290 295 299 300 300 297 295 289 283 275 269 264 261 261 263 265 269 271 272 270 269 265 256 247 241 239 240 241
265 267 267 264 262 263 262 258 252 245 244 249 253 257 262 267 272 275 277 277 275 275 278 282 284 287 288 291 293 293 292 292 293 294 294 295 294 291 290 288 284 282 269 258 245 231 244 249 239 256 272 277 275 274 276 277 281 286 288 290 291 290 289 288 283 279 273 268 262 259 258 258 259 261 264 266 268 269 268 264 257 250 244 240 239
266 269 267 262 259 259 254 248 242 237 238 244 249 255 261 266 270 273 274 274 273 274 280 284 285 287 288 291 293 291 290 290 291 292 293 293 291 288 287 286 283 283 275 258 243 234 238 238 235 257 274 283 286 280 277 279 283 284 283 283 283 281 280 279 276 274 270 266 263 259 257 257 258 259 260 262 265 268 268 266 262 258 252 246 242
270 271 263 254 252 250 244 238 233 232 236 243 249 256 261 265 268 271 272 272 273 278 283 285 286 288 290 290 289 288 288 290 291 292 292 289 286 283 282 285 282 278 272 256 242 235 235 248 258 269 279 283 289 290 284 285 289 286 281 279 279 278 276 273 270 268 267 265 262 259 257 255 255 257 258 259 261 263 264 263 260 258 255 252 248
273 272 258 245 242 239 235 231 230 233 238 244 251 257 261 265 268 270 271 273 277 283 286 288 290 292 290 288 287 288 289 291 292 291 291 287 282 280 279 282 280 276 272 262 246 235 244 270 271 269 287 286 280 283 281 282 288 285 279 275 276 277 277 275 270 266 264 265 262 258 255 255 254 254 256 256 255 257 258 259 258 256 254 251 250
273 269 254 239 233 231 230 229 231 234 239 245 250 256 260 264 268 270 271 275 281 288 291 293 294 294 291 288 287 289 291 292 292 291 289 285 279 278 275 276 276 275 274 265 249 245 256 268 262 256 282 287 272 271 272 274 280 279 274 272 272 273 276 276 274 270 267 266 266 262 257 256 256 254 255 254 252 251 253 255 256 255 252 249 248
268 258 245 233 227 226 227 228 231 234 238 243 248 254 260 264 267 270 275 280 287 291 294 296 295 294 292 291 291 292 293 293 292 290 287 282 276 273 270 269 272 275 275 268 256 257 262 260 257 256 267 272 261 261 265 267 272 273 271 270 271 272 274 275 275 274 272 269 267 265 261 257 256 256 257 256 255 253 252 253 255 256 256 253 249
255 244 235 229 226 225 226 228 231 234 238 242 249 256 260 265 271 276 282 286 288 291 294 296 295 294 293 294 294 294 293 292 291 289 283 278 271 267 265 265 268 273 276 272 264 264 266 262 264 264 261 260 258 258 260 264 268 270 269 268 269 270 271 272 273 274 273 270 267 264 261 259 257 256 255 256 257 255 254 255 258 260 261 261 258
241 228 227 226 224 224 225 228 231 236 241 246 253 258 261 269 278 281 285 288 289 291 294 295 295 294 294 295 295 293 293 292 290 287 279 271 266 263 261 261 263 268 273 275 272 272 273 270 271 271 265 261 259 258 259 262 266 269 269 268 267 267 268 270 272 272 272 271 267 262 260 259 258 256 254 252 253 254 255 256 259 261 263 266 266
227 218 221 222 221 223 225 228 233 238 244 252 257 256 261 273 279 283 285 287 289 291 293 294 294 293 293 294 293 292 293 291 288 282 273 266 263 261 259 258 258 263 271 277 279 278 279 279 279 279 275 267 261 257 258 261 265 268 269 269 268 267 268 270 272 272 271 269 266 264 261 259 256 255 253 252 251 252 253 255 257 260 262 266 269
218 215 218 223 225 225 228 232 236 240 246 250 252 254 263 274 279 283 284 285 286 287 289 290 290 290 290 290 290 291 291 287 282 275 267 262 259 257 256 254 254 261 269 274 279 282 282 284 284 283 281 276 268 261 257 259 262 266 268 269 269 269 270 272 273 272 270 267 266 265 263 258 255 252 251 251 251 251 252 253 255 258 261 263 267
218 215 216 223 229 232 236 237 236 238 243 244 247 256 267 276 281 283 282 281 282 282 283 283 283 285 285 285 286 289 286 278 272 267 258 255 253 253 253 251 253 259 264 270 276 279 281 283 284 285 284 281 277 270 263 258 258 262 266 270 271 272 272 273 274 272 269 266 264 264 261 257 254 252 251 250 251 252 252 252 253 255 258 261 263
215 213 213 220 229 234 235 232 231 234 240 244 251 262 271 279 282 280 279 277 277 278 278 278 279 280 280 281 283 283 277 266 258 251 245 246 250 252 250 245 244 249 257 266 272 274 276 278 281 283 284 284 283 278 270 263 260 262 267 271 273 274 275 275 274 271 267 264 263 261 257 254 252 251 250 250 251 251 251 251 251 253 256 259 261
210 208 211 217 224 225 223 224 231 238 245 252 258 266 273 278 279 277 275 274 274 275 275 276 277 277 277 279 281 278 268 255 245 238 236 242 247 245 239 231 232 243 256 264 265 265 267 270 274 278 281 285 286 283 281 278 278 277 275 276 276 276 277 276 275 271 267 263 261 258 254 251 250 250 249 249 249 249 249 249 249 250 253 256 258
204 201 207 211 214 217 220 228 236 246 253 258 262 266 272 276 277 275 274 274 274 274 275 276 276 276 277 279 278 273 259 247 241 235 234 237 239 238 231 227 235 249 257 258 256 256 259 264 270 275 281 286 288 289 292 294 296 294 289 286 284 281 279 277 275 271 266 262 258 255 252 250 249 248 249 248 248 247 247 247 248 249 251 253 255
200 194 198 201 208 218 226 233 241 251 257 261 263 264 268 276 275 272 273 274 274 274 273 273 273 274 275 276 274 265 250 242 240 237 237 238 240 240 235 235 243 248 249 248 248 251 255 261 268 274 281 286 288 293 298 301 304 305 302 297 289 284 281 277 273 266 261 257 254 252 250 249 248 248 249 249 249 248 248 247 248 249 251 252 253
195 190 192 197 208 222 231 237 246 253 259 261 261 260 266 274 272 269 271 272 272 271 270 270 270 272 273 273 267 253 242 239 240 241 241 244 246 241 234 234 238 238 238 239 241 249 256 262 269 275 280 285 290 297 299 302 307 310 309 304 294 285 279 276 271 263 255 249 249 249 247 245 246 248 248 249 249 249 248 247 248 250 252 253 255
192 197 196 196 207 222 232 239 245 250 258 261 257 255 260 267 268 267 268 269 269 268 268 266 266 269 271 266 254 241 237 239 242 243 244 246 245 236 229 229 226 224 229 233 240 250 259 267 273 277 281 287 294 298 297 300 308 314 317 315 303 289 280 279 275 264 250 243 243 244 243 243 244 247 248 249 249 247 247 249 253 255 255 256 256
199 204 199 196 205 220 230 235 238 242 254 259 255 252 255 261 264 263 265 267 269 268 265 263 264 268 265 253 241 236 237 239 241 242 244 246 241 232 226 223 219 220 225 231 242 253 263 271 277 282 284 289 293 293 292 297 308 317 323 321 308 293 286 288 282 259 238 233 238 242 245 248 249 251 252 252 250 247 245 249 255 260 259 258 258
219 210 202 201 206 215 221 225 231 242 257 259 257 255 252 256 259 258 259 262 266 266 263 261 263 262 253 242 236 236 238 239 238 240 241 240 235 229 225 222 221 222 226 232 246 257 266 275 280 284 286 287 289 289 290 299 309 316 322 318 310 303 298 294 273 235 226 235 244 250 251 255 258 256 254 254 250 246 243 245 253 260 262 261 261
221 211 201 196 198 203 207 219 237 254 265 265 264 259 250 249 250 252 253 256 259 261 260 258 257 252 243 237 235 235 235 234 235 237 238 235 231 230 229 228 228 231 236 244 255 263 270 276 280 282 284 285 286 287 293 303 309 311 312 311 315 319 309 282 249 232 242 249 248 253 255 258 263 257 253 254 249 244 241 244 253 261 264 264 264
195 191 178 173 186 200 214 229 241 255 266 271 269 260 251 245 243 246 249 253 257 257 257 254 249 243 238 236 234 231 229 230 234 236 236 234 233 233 233 234 237 243 250 255 260 265 270 271 274 277 280 284 285 287 293 302 307 305 304 308 322 333 318 272 241 236 243 243 241 259 269 272 273 263 256 252 244 243 243 248 260 267 267 266 266
196 179 177 190 209 224 236 238 233 245 263 268 267 257 249 245 242 244 246 252 256 256 256 251 244 239 237 235 231 227 227 230 233 234 234 233 233 234 235 237 241 247 254 257 260 261 262 264 267 272 277 282 283 285 291 298 304 302 301 310 329 344 333 272 230 224 224 234 248 266 279 286 289 280 262 247 241 244 248 255 264 268 268 269 270
240 227 215 221 231 241 249 248 234 236 259 261 256 250 245 244 243 242 246 253 258 259 257 251 243 237 235 233 228 226 227 230 231 231 232 232 233 235 237 240 244 249 255 259 263 261 258 258 262 268 274 279 280 281 286 294 302 303 301 311 331 349 354 308 208 219 235 254 263 269 272 275 279 278 264 250 246 250 259 266 268 266 269 273 275
241 241 239 239 244 248 253 255 240 232 247 247 237 237 239 241 244 244 247 251 258 264 258 248 241 236 233 230 226 226 229 230 231 232 234 234 236 237 238 241 245 251 258 262 264 263 260 257 259 262 268 271 271 275 283 289 296 299 300 308 322 338 356 27 203 230 253 264 271 274 273 271 271 271 266 261 262 266 270 274 274 272 273 276 277
239 242 247 249 252 254 254 252 241 231 232 224 211 213 225 239 248 248 248 250 257 261 254 245 240 236 231 226 225 227 229 231 232 234 236 237 237 238 239 239 243 249 255 260 263 262 261 257 255 254 257 260 264 271 278 284 290 294 297 302 307 310 319 305 254 251 259 268 275 276 276 277 274 272 271 271 273 274 274 277 279 279 278 277 276
237 241 247 251 253 255 254 247 239 233 224 216 212 218 238 255 257 252 248 249 251 250 247 245 242 237 230 226 225 227 230 233 235 236 237 238 238 238 239 239 241 246 251 258 261 261 260 257 254 251 251 255 261 267 271 277 285 290 292 293 293 291 287 271 263 266 271 275 278 274 274 278 277 274 272 273 275 275 276 279 278 275 274 274 274
232 234 239 245 248 251 252 246 241 235 225 219 222 231 246 257 257 252 247 245 243 241 243 245 242 237 230 226 225 227 232 235 236 236 236 237 238 238 238 238 241 247 254 260 261 260 257 255 254 253 254 257 262 265 267 269 276 283 285 283 280 277 276 270 264 265 271 276 280 280 280 279 278 279 278 280 282 281 280 281 281 279 278 278 279
227 228 228 234 242 249 252 250 248 245 237 228 229 236 243 248 250 248 245 243 241 240 241 243 239 234 230 227 227 229 233 235 235 234 233 234 234 234 235 237 243 250 257 259 258 256 255 254 253 256 259 260 262 264 265 260 258 262 267 267 267 267 270 268 260 257 263 271 275 277 282 284 284 286 289 290 291 291 289 289 290 291 292 292 291
226 226 224 226 237 248 252 251 250 250 246 240 237 240 242 242 244 244 242 241 240 241 242 239 233 229 227 226 227 231 233 233 232 230 229 230 229 230 232 236 242 248 252 254 254 252 252 253 255 259 261 258 256 259 260 255 247 245 246 248 252 253 257 257 256 256 257 261 265 269 277 281 283 285 289 292 294 296 295 294 295 295 296 296 297
224 227 227 224 229 244 254 254 252 251 251 249 246 246 245 243 242 241 241 241 241 244 241 232 225 224 224 227 230 233 233 230 228 227 227 226 227 228 232 236 240 243 246 249 250 249 250 253 256 259 260 257 255 253 252 251 247 245 242 242 243 239 237 242 245 245 244 248 257 265 271 273 277 281 285 289 290 291 291 292 293 294 296 297 298
223 228 230 225 224 237 249 254 255 254 252 250 247 248 248 245 242 241 239 239 241 242 235 225 222 223 226 231 234 234 233 229 227 226 225 225 227 230 233 237 239 241 244 246 248 248 249 253 257 261 263 263 261 255 252 250 249 250 248 244 241 235 230 231 232 231 232 236 244 251 258 262 268 275 279 283 284 285 287 288 289 292 294 296 297
222 226 229 226 223 231 240 245 251 254 251 246 244 247 249 245 242 240 236 235 237 236 230 224 223 226 231 235 236 234 232 230 227 226 226 227 230 232 234 236 239 241 242 244 244 246 249 255 260 264 267 269 266 260 255 251 249 250 251 248 243 237 232 230 231 231 231 235 243 250 259 266 271 274 278 281 283 285 286 287 288 290 292 294 296
218 221 223 223 221 224 231 235 241 248 247 242 244 248 249 245 240 238 234 231 234 234 231 230 229 232 236 238 237 235 232 230 228 228 229 232 235 237 238 238 239 241 241 241 241 243 249 257 263 267 269 270 269 264 258 253 250 248 248 247 245 241 237 233 233 234 235 240 248 256 263 270 275 278 280 281 282 283 284 285 286 288 291 294 297
215 216 219 223 222 218 221 224 230 242 245 244 246 245 244 242 236 233 230 228 232 234 234 234 236 240 243 242 239 236 232 230 229 230 233 238 241 243 243 241 240 240 240 239 240 244 250 256 262 266 268 269 269 267 260 256 253 250 248 246 246 245 242 241 241 240 241 244 250 257 263 269 273 276 276 276 277 279 280 284 286 289 293 296 299
Height
5870 5870 5870 5870 5870 5870 5871 5871 5872 5872 5872 5872 5872 5871 5871 5871 5870 5870 5869 5868 5868 5867 5867 5866 5866 5865 5864 5864 5863 5863 5862 5862 5861 5861 5860 5860 5860 5859 5859 5859 5858 5857 5857 5857 5856 5855 5855 5855 5854 5854 5854 5854 5853 5853 5852 5852 5851 5851 5850 5850 5849 5849 5849 5849 5849 5849 5848 5848 5848 5849 5849 5849 5849 5849 5850 5850 5850 5850 5851 5851 5851 5851 5851 5852 5852
5868 5869 5869 5869 5869 5869 5870 5870 5871 5871 5871 5871 5871 5870 5870 5870 5869 5869 5868 5868 5867 5867 5867 5866 5865 5864 5863 5863 5862 5862 5862 5861 5861 5860 5860 5860 5859 5859 5859 5858 5857 5857 5856 5856 5856 5855 5855 5854 5854 5854 5854 5853 5853 5852 5852 5851 5851 5850 5850 5850 5849 5849 5849 5849 5848 5848 5848 5848 5848 5848 5848 5849 5849 5849 5849 5850 5850 5850 5851 5851 5851 5852 5852 5852 5852
5867 5867 5867 5868 5868 5868 5869 5869 5870 5870 5870 5869 5869 5869 5869 5869 5868 5868 5868 5867 5867 5867 5866 5865 5864 5863 5863 5862 5862 5861 5861 5861 5860 5860 5860 5859 5859 5858 5858 5858 5857 5856 5856 5856 5855 5855 5854 5854 5854 5853 5853 5853 5852 5852 5851 5851 5850 5850 5849 5849 5849 5849 5849 5849 5848 5848 5848 5848 5848 5848 5848 5849 5849 5849 5849 5850 5850 5850 5851 5851 5851 5852 5852 5851 5852
5865 5865 5865 5866 5866 5867 5868 5868 5868 5869 5868 5868 5868 5868 5868 5868 5867 5867 5867 5866 5866 5866 5865 5864 5863 5863 5862 5862 5861 5861 5860 5860 5860 5859 5859 5859 5858 5858 5857 5857 5856 5855 5855 5855 5855 5854 5854 5853 5853 5853 5853 5852 5852 5851 5851 5850 5850 5849 5849 5849 5849 5849 5848 5848 5848 5848 5848 5848 5848 5848 5848 5849 5849 5849 5849 5850 5850 5850 5851 5851 5851 5851 5852 5852 5852
5863 5863 5864 5864 5865 5866 5866 5867 5867 5867 5867 5867 5866 5866 5866 5866 5866 5866 5865 5865 5865 5865 5864 5863 5862 5862 5861 5861 5861 5860 5860 5859 5859 5859 5858 5858 5857 5857 5856 5856 5856 5855 5855 5854 5854 5854 5853 5853 5853 5852 5852 5852 5852 5851 5851 5850 5850 5849 5849 5849 5849 5849 5848 5848 5849 5848 5848 5848 5848 5848 5848 5849 5849 5849 5849 5850 5850 5850 5851 5851 5851 5852 5852 5852 5852
5862 5862 5862 5863 5863 5864 5865 5865 5865 5865 5865 5865 5865 5864 5864 5864 5864 5864 5864 5864 5864 5863 5863 5862 5862 5861 5861 5860 5860 5860 5859 5859 5858 5858 5858 5857 5857 5856 5856 5856 5855 5854 5854 5854 5854 5854 5853 5853 5852 5852 5852 5852 5852 5851 5850 5850 5849 5849 5849 5848 5848 5849 5849 5849 5849 5849 5849 5848 5848 5848 5849 5849 5849 5849 5849 5849 5850 5850 5851 5851 5851 5852 5852 5852 5852
5860 5861 5861 5861 5862 5863 5864 5864 5864 5864 5864 5863 5863 5862 5862 5862 5863 5863 5863 5863 5862 5862 5861 5861 5861 5860 5860 5859 5859 5859 5859 5858 5858 5857 5857 5856 5856 5855 5855 5855 5854 5854 5854 5853 5853 5853 5853 5852 5851 5851 5851 5851 5851 5851 5850 5850 5849 5849 5848 5848 5848 5848 5849 5849 5849 5849 5849 5849 5849 5849 5849 5849 5849 5849 5849 5849 5850 5850 5850 5851 5851 5852 5852 5852 5852
5859 5859 5859 5860 5861 5861 5862 5862 5863 5862 5862 5862 5861 5861 5861 5861 5861 5861 5861 5861 5861 5861 5861 5860 5860 5859 5859 5858 5858 5858 5858 5857 5857 5856 5856 5855 5855 5854 5854 5854 5854 5853 5853 5853 5853 5853 5852 5852 5851 5850 5850 5851 5851 5850 5850 5849 5849 5849 5848 5848 5848 5848 5849 5849 5849 5849 5849 5849 5849 5849 5849 5849 5849 5849 5849 5849 5850 5850 5850 5850 5851 5851 5852 5852 5852
5857 5857 5858 5858 5858 5859 5860 5860 5861 5861 5861 5861 5860 5860 5860 5860 5860 5860 5860 5859 5859 5859 5859 5859 5858 5858 5858 5857 5857 5857 5856 5856 5856 5855 5855 5854 5854 5853 5853 5853 5853 5853 5852 5852 5852 5852 5852 5851 5850 5850 5850 5850 5851 5850 5849 5849 5849 5848 5848 5848 5848 5848 5849 5849 5849 5849 5849 5849 5849 5849 5849 5849 5849 5849 5849 5849 5850 5850 5850 5850 5850 5851 5851 5851 5852
5855 5855 5856 5856 5856 5857 5858 5858 5859 5859 5859 5859 5859 5858 5858 5859 5859 5858 5858 5858 5858 5858 5858 5857 5857 5857 5857 5856 5856 5855 5855 5855 5854 5854 5853 5853 5853 5852 5852 5852 5852 5852 5852 5852 5852 5852 5852 5851 5850 5849 5849 5849 5850 5850 5849 5848 5848 5848 5848 5848 5848 5848 5848 5849 5849 5849 5849 5849 5849 5849 5849 5849 5849 5849 5849 5849 5849 5850 5850 5850 5850 5851 5851 5851 5851
5852 5853 5853 5853 5854 5855 5855 5856 5856 5857 5857 5857 5857 5857 5857 5857 5857 5857 5857 5857 5857 5857 5856 5856 5856 5856 5855 5855 5854 5854 5853 5853 5853 5852 5852 5852 5851 5851 5851 5851 5851 5851 5851 5851 5851 5852 5852 5851 5850 5848 5848 5848 5849 5849 5848 5847 5847 5848 5847 5848 5848 5848 5848 5849 5849 5849 5849 5849 5849 5849 5849 5849 5849 5849 5849 5849 5849 5849 5850 5850 5850 5850 5851 5851 5851
5849 5850 5850 5851 5852 5852 5853 5853 5854 5854 5854 5854 5855 5855 5855 5855 5855 5855 5855 5855 5855 5855 5855 5855 5855 5854 5854 5853 5853 5852 5852 5851 5851 5851 5850 5850 5850 5850 5850 5850 5850 5850 5850 5851 5851 5851 5851 5851 5850 5848 5847 5847 5847 5848 5848 5847 5847 5847 5847 5847 5847 5848 5848 5848 5848 5849 5849 5849 5849 5849 5848 5848 5848 5848 5849 5849 5849 5849 5849 5849 5850 5850 5850 5851 5851
5847 5847 5848 5848 5849 5850 5850 5851 5851 5851 5851 5852 5853 5853 5854 5854 5854 5854 5854 5854 5854 5854 5854 5854 5853 5853 5852 5852 5851 5851 5850 5850 5850 5849 5849 5848 5849 5849 5849 5848 5848 5849 5849 5850 5850 5851 5851 5850 5850 5848 5847 5846 5846 5847 5847 5846 5846 5846 5847 5847 5847 5847 5847 5848 5848 5848 5848 5848 5848 5848 5848 5848 5848 5848 5848 5848 5848 5848 5849 5849 5849 5850 5850 5850 5850
5844 5844 5845 5846 5847 5847 5848 5848 5848 5848 5849 5850 5851 5852 5852 5852 5852 5852 5852 5853 5853 5853 5853 5852 5852 5851 5851 5850 5850 5849 5849 5849 5848 5848 5847 5847 5847 5847 5847 5847 5847 5847 5848 5849 5850 5850 5850 5850 5849 5848 5846 5845 5845 5846 5846 5846 5846 5846 5846 5847 5846 5846 5847 5847 5847 5847 5848 5848 5848 5848 5848 5848 5848 5848 5848 5848 5848 5848 5848 5848 5849 5849 5849 5850 5850
5842 5842 5843 5843 5844 5845 5846 5846 5846 5846 5847 5848 5849 5849 5850 5850 5850 5851 5851 5851 5851 5851 5851 5851 5850 5849 5849 5849 5848 5848 5847 5847 5847 5846 5846 5845 5845 5846 5846 5846 5846 5846 5847 5848 5848 5849 5850 5849 5849 5848 5846 5845 5844 5845 5845 5845 5845 5845 5846 5846 5846 5846 5846 5846 5846 5846 5847 5847 5847 5847 5847 5847 5847 5847 5847 5847 5847 5847 5847 5848 5848 5848 5849 5849 5849
5840 5840 5841 5842 5842 5843 5843 5844 5844 5845 5845 5846 5847 5848 5848 5848 5849 5849 5849 5849 5849 5849 5849 5849 5848 5848 5847 5847 5847 5846 5846 5845 5845 5845 5844 5844 5844 5844 5844 5844 5844 5845 5845 5846 5847 5848 5848 5848 5848 5848 5846 5845 5844 5844 5845 5845 5844 5844 5845 5845 5845 5845 5845 5845 5845 5846 5846 5846 5846 5846 5846 5847 5847 5847 5847 5847 5847 5847 5847 5847 5847 5848 5848 5849 5849
5838 5838 5839 5840 5840 5841 5841 5842 5842 5843 5844 5845 5845 5846 5846 5847 5847 5847 5847 5847 5848 5847 5847 5847 5846 5846 5846 5845 5845 5845 5844 5844 5843 5843 5843 5842 5842 5842 5842 5842 5843 5843 5844 5845 5846 5846 5847 5847 5847 5847 5846 5845 5843 5843 5843 5844 5844 5844 5844 5844 5844 5844 5844 5844 5845 5845 5845 5845 5846 5846 5846 5846 5846 5846 5846 5846 5846 5846 5846 5846 5847 5847 5847 5848 5848
5836 5836 5837 5837 5837 5838 5838 5839 5840 5841 5842 5843 5843 5844 5844 5845 5845 5845 5845 5846 5845 5845 5845 5845 5844 5844 5844 5843 5843 5843 5843 5842 5842 5841 5841 5841 5840 5840 5840 5840 5841 5842 5842 5843 5844 5845 5846 5846 5846 5846 5845 5844 5843 5842 5842 5843 5843 5843 5843 5843 5843 5843 5843 5843 5844 5844 5844 5844 5845 5845 5845 5845 5845 5845 5845 5845 5846 5846 5846 5846 5846 5846 5846 5847 5847
5834 5834 5834 5834 5834 5835 5836 5837 5837 5839 5840 5840 5841 5842 5842 5842 5843 5843 5843 5843 5843 5843 5843 5843 5843 5842 5842 5842 5841 5841 5841 5840 5840 5840 5839 5839 5839 5839 5838 5838 5839 5840 5841 5841 5842 5843 5844 5845 5845 5845 5845 5844 5843 5842 5841 5841 5842 5842 5841 5841 5841 5842 5842 5842 5843 5843 5843 5843 5844 5844 5844 5844 5844 5844 5845 5845 5845 5845 5846 5846 5846 5846 5846 5846 5846
5832 5832 5832 5831 5832 5833 5834 5834 5835 5836 5837 5838 5839 5839 5840 5840 5841 5841 5841 5841 5841 5841 5841 5841 5841 5841 5840 5840 5839 5839 5839 5839 5838 5838 5838 5837 5837 5837 5837 5836 5837 5838 5839 5840 5841 5842 5843 5844 5844 5844 5843 5843 5843 5841 5841 5840 5840 5840 5840 5840 5840 5840 5841 5841 5842 5842 5842 5842 5843 5843 5844 5844 5844 5844 5844 5844 5845 5845 5845 5845 5845 5845 5845 5845 5845
5829 5829 5829 5829 5830 5831 5832 5833 5834 5835 5835 5836 5837 5837 5837 5838 5839 5839 5839 5839 5840 5840 5839 5839 5839 5839 5838 5838 5838 5837 5837 5837 5836 5836 5836 5836 5836 5835 5835 5835 5835 5836 5837 5838 5839 5840 5841 5842 5843 5843 5842 5842 5842 5841 5840 5840 5839 5839 5839 5839 5839 5839 5840 5840 5840 5841 5841 5841 5842 5842 5843 5843 5843 5843 5843 5843 5844 5844 5844 5844 5844 5844 5844 5845 5845
5827 5827 5827 5827 5828 5829 5831 5831 5832 5833 5833 5834 5834 5835 5835 5836 5836 5837 5837 5838 5838 5837 5837 5836 5836 5836 5836 5836 5836 5836 5835 5835 5834 5834 5834 5834 5834 5834 5834 5834 5834 5835 5835 5836 5838 5838 5839 5840 5841 5841 5841 5841 5841 5841 5840 5839 5838 5837 5837 5837 5838 5838 5838 5839 5839 5839 5840 5840 5841 5841 5842 5842 5842 5842 5842 5843 5843 5843 5843 5843 5843 5844 5844 5844 5844
5825 5825 5825 5826 5827 5828 5829 5830 5830 5831 5831 5831 5832 5832 5833 5834 5834 5835 5835 5835 5835 5835 5834 5834 5834 5834 5834 5834 5834 5833 5833 5833 5832 5832 5832 5832 5832 5833 5833 5833 5832 5833 5834 5835 5836 5836 5837 5838 5838 5839 5839 5839 5839 5839 5839 5838 5837 5836 5835 5836 5836 5837 5837 5837 5838 5838 5839 5839 5840 5840 5840 5841 5841 5841 5842 5842 5842 5842 5842 5842 5843 5843 5843 5843 5843
5822 5822 5823 5824 5825 5826 5827 5827 5828 5828 5829 5829 5830 5830 5831 5832 5832 5832 5833 5833 5833 5833 5833 5833 5832 5832 5832 5832 5832 5831 5831 5831 5831 5831 5831 5831 5831 5831 5831 5832 5832 5832 5832 5833 5834 5834 5835 5836 5836 5837 5838 5838 5838 5838 5838 5837 5836 5835 5834 5834 5835 5835 5836 5836 5836 5837 5837 5838 5838 5838 5839 5839 5840 5841 5841 5841 5841 5841 5842 5842 5842 5842 5842 5843 5843
5819 5820 5821 5822 5823 5824 5824 5825 5825 5826 5827 5827 5828 5829 5829 5829 5829 5830 5830 5830 5830 5831 5831 5831 5830 5830 5830 5830 5830 5829 5829 5829 5829 5829 5829 5829 5829 5830 5830 5831 5831 5831 5831 5831 5832 5833 5833 5834 5834 5835 5836 5836 5836 5836 5836 5836 5835 5834 5833 5833 5833 5834 5834 5834 5834 5835 5836 5836 5836 5837 5837 5838 5839 5839 5839 5839 5840 5840 5841 5841 5842 5842 5842 5842 5842
5818 5818 5819 5820 5820 5821 5822 5822 5823 5824 5825 5826 5826 5827 5827 5827 5827 5828 5828 5828 5828 5828 5829 5828 5828 5829 5829 5828 5828 5828 5828 5827 5827 5828 5828 5828 5828 5829 5829 5830 5830 5830 5830 5830 5830 5831 5831 5832 5832 5833 5834 5834 5835 5835 5834 5834 5833 5832 5832 5831 5832 5832 5832 5833 5833 5834 5835 5835 5834 5835 5836 5836 5837 5837 5837 5838 5838 5839 5839 5840 5841 5841 5841 5841 5841
5816 5816 5817 5818 5819 5820 5820 5821 5822 5823 5823 5824 5824 5824 5825 5825 5825 5826 5826 5826 5826 5826 5827 5827 5827 5827 5827 5827 5826 5826 5826 5826 5826 5826 5827 5827 5827 5828 5828 5829 5829 5829 5829 5829 5829 5829 5830 5830 5831 5831 5831 5832 5832 5833 5833 5832 5832 5831 5830 5830 5830 5830 5831 5831 5832 5832 5833 5833 5833 5833 5834 5834 5835 5835 5835 5836 5836 5837 5838 5839 5840 5840 5840 5840 5840
5813 5814 5815 5816 5817 5818 5819 5820 5820 5821 5821 5822 5822 5823 5823 5823 5824 5824 5824 5824 5824 5824 5824 5825 5825 5825 5825 5825 5825 5825 5825 5824 5825 5825 5825 5826 5826 5827 5827 5827 5828 5828 5828 5828 5828 5828 5828 5828 5829 5829 5829 5829 5830 5830 5831 5831 5830 5829 5828 5828 5828 5829 5829 5830 5830 5831 5831 5831 5831 5831 5832 5832 5832 5833 5833 5834 5835 5836 5837 5838 5838 5839 5839 5839 5839
5810 5811 5812 5814 5815 5816 5817 5817 5818 5819 5819 5820 5820 5821 5821 5822 5822 5822 5822 5822 5822 5822 5822 5823 5823 5823 5823 5823 5823 5823 5823 5823 5824 5824 5824 5825 5825 5825 5826 5826 5827 5827 5827 5827 5827 5827 5827 5827 5827 5827 5827 5828 5828 5828 5829 5829 5829 5828 5828 5827 5827 5828 5828 5829 5829 5829 5829 5829 5829 5829 5829 5830 5830 5831 5831 5832 5833 5834 5835 5836 5837 5837 5837 5837 5837
5807 5807 5808 5810 5812 5813 5814 5815 5815 5817 5818 5819 5819 5819 5820 5820 5820 5820 5820 5820 5820 5820 5820 5821 5821 5821 5821 5821 5821 5822 5822 5822 5822 5823 5823 5823 5824 5824 5825 5826 5826 5826 5826 5826 5826 5826 5826 5826 5826 5826 5826 5826 5826 5826 5826 5827 5827 5827 5827 5826 5826 5826 5826 5827 5827 5827 5827 5827 5827 5827 5827 5828 5828 5828 5829 5830 5831 5832 5833 5834 5835 5835 5835 5835 5835
5804 5804 5806 5807 5809 5810 5811 5812 5814 5815 5816 5817 5817 5818 5818 5818 5818 5817 5817 5818 5818 5818 5819 5819 5819 5819 5820 5820 5820 5820 5820 5821 5821 5822 5822 5823 5823 5824 5824 5825 5825 5825 5825 5825 5825 5825 5825 5825 5825 5825 5825 5825 5825 5825 5825 5825 5826 5826 5825 5825 5825 5825 5825 5825 5824 5824 5824 5825 5825 5825 5825 5826 5826 5827 5828 5829 5829 5830 5831 5832 5833 5833 5833 5833 5833
5803 5802 5802 5804 5806 5807 5809 5811 5812 5813 5814 5815 5815 5816 5816 5816 5816 5815 5815 5816 5816 5816 5817 5817 5818 5818 5818 5818 5819 5819 5819 5819 5820 5820 5821 5822 5822 5823 5824 5824 5824 5824 5824 5824 5824 5824 5824 5824 5824 5824 5824 5824 5824 5823 5823 5824 5824 5824 5824 5823 5823 5823 5823 5822 5822 5822 5821 5822 5823 5823 5823 5824 5824 5825 5826 5827 5828 5829 5829 5830 5830 5831 5831 5831 5831
5801 5799 5799 5801 5804 5805 5807 5809 5811 5812 5813 5813 5813 5813 5814 5814 5814 5813 5813 5814 5814 5815 5815 5816 5816 5816 5817 5817 5817 5818 5818 5818 5819 5819 5820 5821 5821 5822 5823 5823 5823 5823 5824 5824 5824 5823 5823 5823 5823 5823 5823 5823 5823 5822 5822 5823 5823 5823 5822 5822 5821 5821 5821 5820 5820 5819 5819 5820 5821 5821 5821 5822 5823 5823 5824 5825 5826 5827 5828 5828 5828 5829 5829 5829 5830
5797 5797 5796 5799 5802 5804 5806 5808 5809 5810 5811 5811 5811 5811 5812 5812 5812 5812 5812 5812 5812 5813 5814 5814 5814 5815 5815 5816 5816 5817 5817 5817 5818 5818 5819 5819 5820 5821 5822 5822 5823 5823 5823 5823 5823 5822 5822 5822 5822 5822 5822 5822 5822 5822 5822 5822 5822 5821 5821 5820 5819 5819 5819 5818 5818 5817 5817 5818 5819 5819 5819 5820 5821 5822 5823 5823 5824 5825 5826 5827 5827 5827 5827 5828 5828
5794 5795 5794 5797 5800 5802 5805 5806 5808 5808 5809 5809 5809 5809 5810 5810 5810 5810 5810 5810 5811 5812 5812 5813 5813 5813 5814 5814 5815 5815 5816 5816 5817 5817 5818 5818 5819 5820 5821 5821 5822 5822 5822 5822 5822 5821 5821 5821 5821 5821 5821 5821 5821 5821 5821 5821 5821 5820 5819 5818 5818 5818 5817 5817 5817 5816 5817 5817 5817 5818 5818 5819 5820 5821 5821 5822 5823 5824 5825 5825 5825 5826 5826 5827 5827
5795 5795 5794 5796 5799 5801 5803 5805 5806 5806 5807 5807 5807 5807 5807 5807 5807 5808 5808 5808 5809 5810 5810 5811 5811 5812 5812 5813 5814 5814 5815 5815 5815 5816 5816 5817 5817 5818 5819 5820 5820 5821 5821 5821 5821 5821 5821 5821 5821 5821 5820 5820 5820 5820 5821 5820 5820 5819 5818 5817 5817 5817 5817 5817 5816 5816 5816 5817 5817 5817 5818 5819 5819 5819 5820 5821 5821 5822 5823 5823 5824 5825 5825 5826 5826
5794 5794 5794 5796 5798 5800 5802 5803 5803 5804 5804 5805 5805 5805 5805 5805 5805 5805 5806 5806 5807 5808 5809 5809 5810 5810 5811 5812 5813 5813 5814 5814 5814 5814 5815 5815 5816 5817 5818 5818 5819 5819 5819 5820 5820 5820 5820 5820 5820 5820 5820 5820 5819 5820 5820 5819 5819 5817 5817 5816 5816 5816 5816 5816 5816 5816 5816 5817 5817 5817 5817 5818 5818 5818 5819 5819 5820 5821 5821 5822 5823 5824 5824 5825 5825
5792 5793 5793 5795 5796 5798 5799 5800 5800 5801 5801 5802 5802 5803 5803 5803 5803 5803 5804 5804 5805 5806 5807 5807 5808 5809 5810 5811 5812 5812 5812 5812 5813 5813 5813 5814 5815 5815 5816 5817 5818 5818 5818 5819 5819 5819 5819 5819 5819 5819 5819 5819 5819 5819 5819 5818 5817 5816 5816 5815 5815 5815 5814 5814 5815 5815 5816 5816 5816 5816 5816 5816 5816 5817 5818 5818 5819 5820 5821 5821 5822 5823 5824 5824 5824
5791 5791 5792 5794 5795 5797 5797 5796 5796 5797 5798 5799 5800 5801 5801 5801 5801 5801 5802 5803 5804 5805 5805 5806 5806 5807 5808 5809 5810 5811 5811 5811 5811 5812 5812 5813 5813 5814 5815 5816 5816 5817 5817 5817 5817 5817 5818 5818 5818 5818 5818 5818 5818 5818 5817 5817 5816 5816 5815 5814 5814 5814 5813 5813 5814 5815 5815 5815 5815 5815 5816 5816 5816 5816 5817 5818 5819 5819 5820 5821 5822 5822 5823 5823 5824
5790 5790 5792 5793 5794 5795 5794 5793 5792 5793 5795 5796 5797 5798 5799 5799 5799 5800 5800 5801 5803 5803 5804 5804 5805 5805 5806 5808 5809 5809 5810 5810 5810 5810 5811 5811 5812 5813 5814 5815 5815 5816 5816 5816 5816 5816 5816 5817 5817 5817 5817 5817 5817 5817 5816 5816 5816 5815 5814 5814 5814 5814 5813 5813 5813 5814 5815 5815 5815 5816 5816 5815 5816 5817 5818 5818 5819 5818 5819 5820 5821 5822 5822 5822 5822
5789 5789 5790 5792 5793 5792 5792 5793 5792 5791 5792 5794 5795 5796 5797 5797 5798 5799 5799 5800 5801 5802 5802 5803 5803 5804 5805 5806 5807 5808 5808 5809 5809 5809 5810 5810 5811 5812 5813 5813 5814 5814 5815 5815 5815 5815 5815 5815 5815 5815 5815 5815 5816 5816 5815 5815 5815 5814 5813 5813 5813 5813 5813 5813 5813 5814 5814 5814 5815 5816 5816 5816 5816 5817 5817 5818 5818 5817 5818 5819 5820 5821 5821 5821 5821
5788 5788 5788 5790 5792 5790 5790 5793 5793 5790 5791 5793 5794 5795 5795 5796 5797 5797 5798 5799 5800 5800 5801 5801 5801 5802 5803 5804 5805 5806 5807 5807 5808 5808 5808 5809 5810 5811 5811 5812 5812 5813 5813 5813 5813 5813 5813 5814 5814 5814 5814 5814 5814 5815 5814 5814 5814 5813 5812 5812 5813 5813 5813 5813 5813 5814 5814 5814 5815 5815 5815 5816 5816 5816 5816 5816 5816 5816 5817 5818 5819 5820 5820 5820 5820
5786 5787 5787 5788 5790 5789 5788 5791 5792 5790 5790 5791 5792 5793 5794 5794 5795 5796 5796 5797 5798 5798 5798 5799 5799 5801 5802 5802 5803 5804 5805 5806 5806 5806 5807 5808 5809 5809 5810 5811 5811 5812 5812 5812 5812 5812 5812 5812 5813 5813 5813 5813 5813 5813 5813 5813 5813 5812 5812 5812 5812 5813 5813 5813 5813 5813 5813 5813 5814 5814 5814 5815 5815 5815 5815 5815 5816 5816 5816 5817 5817 5818 5818 5818 5818
5784 5785 5786 5787 5789 5788 5786 5788 5790 5790 5789 5788 5789 5791 5791 5792 5792 5793 5794 5795 5796 5796 5796 5796 5798 5799 5800 5801 5801 5802 5803 5804 5804 5805 5806 5806 5807 5808 5809 5809 5810 5810 5810 5810 5811 5811 5811 5811 5812 5812 5812 5812 5812 5812 5812 5812 5812 5812 5811 5811 5811 5812 5812 5813 5813 5813 5813 5813 5813 5813 5813 5814 5814 5814 5814 5815 5815 5816 5816 5816 5817 5817 5817 5817 5817
5782 5783 5784 5785 5787 5786 5785 5786 5788 5789 5787 5785 5786 5788 5789 5790 5790 5791 5792 5792 5793 5793 5794 5795 5796 5797 5798 5799 5800 5801 5801 5802 5803 5803 5804 5805 5806 5806 5807 5808 5808 5809 5809 5809 5809 5809 5810 5810 5810 5810 5811 5811 5811 5811 5811 5811 5811 5811 5811 5811 5811 5811 5812 5812 5812 5812 5813 5813 5813 5813 5813 5813 5814 5814 5814 5815 5815 5816 5816 5816 5817 5817 5816 5816 5816
5779 5781 5782 5784 5785 5784 5784 5784 5785 5785 5785 5784 5785 5786 5787 5787 5788 5788 5789 5789 5790 5791 5791 5793 5794 5795 5795 5797 5798 5799 5799 5800 5801 5802 5802 5803 5804 5805 5806 5806 5807 5807 5808 5808 5808 5808 5808 5809 5809 5809 5809 5810 5810 5810 5810 5810 5811 5811 5810 5810 5810 5810 5811 5811 5811 5812 5812 5812 5813 5813 5813 5813 5814 5814 5814 5814 5815 5815 5816 5816 5816 5816 5816 5816 5816
5777 5778 5780 5782 5783 5783 5782 5782 5782 5781 5782 5783 5783 5784 5785 5785 5786 5786 5786 5787 5788 5789 5789 5790 5791 5792 5794 5795 5796 5797 5797 5798 5799 5800 5801 5802 5803 5804 5804 5805 5805 5806 5806 5806 5807 5807 5807 5807 5808 5808 5808 5809 5809 5809 5809 5809 5810 5810 5810 5810 5810 5810 5810 5810 5810 5811 5811 5811 5812 5812 5813 5813 5813 5813 5813 5814 5814 5814 5815 5815 5815 5814 5814 5814 5814
5775 5776 5777 5779 5781 5781 5781 5780 5779 5778 5778 5780 5781 5783 5783 5783 5783 5784 5784 5785 5786 5786 5787 5788 5789 5791 5792 5793 5794 5795 5796 5797 5798 5799 5800 5801 5802 5802 5803 5803 5804 5804 5805 5805 5805 5805 5806 5806 5806 5807 5807 5807 5808 5808 5808 5808 5808 5809 5809 5809 5809 5809 5809 5809 5809 5810 5810 5810 5811 5811 5811 5812 5812 5813 5813 5813 5813 5813 5813 5813 5813 5813 5813 5813 5812
5773 5774 5775 5777 5778 5779 5779 5779 5778 5775 5775 5778 5780 5780 5781 5781 5781 5781 5782 5783 5783 5784 5785 5786 5788 5789 5790 5792 5792 5793 5794 5795 5797 5798 5799 5800 5800 5801 5801 5802 5802 5803 5803 5804 5804 5804 5804 5804 5805 5805 5806 5806 5806 5806 5806 5806 5807 5807 5808 5808 5808 5808 5808 5808 5808 5809 5809 5809 5809 5810 5810 5811 5811 5811 5812 5812 5812 5812 5812 5812 5812 5812 5812 5812 5811
5770 5771 5772 5774 5775 5776 5776 5777 5777 5773 5772 5775 5777 5778 5778 5777 5777 5778 5779 5781 5781 5782 5783 5785 5786 5788 5789 5790 5791 5792 5793 5794 5796 5797 5798 5798 5799 5800 5800 5801 5801 5802 5802 5802 5802 5802 5802 5803 5803 5804 5804 5804 5805 5805 5805 5805 5805 5806 5806 5807 5807 5807 5807 5807 5807 5808 5808 5808 5808 5809 5809 5809 5810 5810 5810 5810 5811 5811 5811 5811 5811 5811 5811 5810 5810
5767 5768 5769 5769 5770 5772 5772 5772 5773 5770 5768 5771 5774 5774 5774 5774 5774 5775 5776 5778 5778 5779 5781 5783 5785 5787 5788 5789 5790 5791 5792 5793 5794 5796 5797 5797 5798 5798 5799 5799 5800 5800 5800 5801 5801 5801 5801 5801 5801 5802 5802 5803 5803 5804 5804 5804 5804 5805 5805 5806 5806 5806 5806 5806 5806 5807 5807 5807 5807 5807 5808 5808 5808 5808 5809 5809 5809 5809 5809 5809 5809 5809 5809 5809 5809